TimeCDT,TemperatureF,Dew PointF,Humidity,Sea Level PressureIn,VisibilityMPH,Wind Direction,Wind SpeedMPH,Gust SpeedMPH,PrecipitationIn,Events,Conditions,WindDirDegrees,DateUTC
12:15 AM,76.5,73.8,91,29.99,3.0,Calm,Calm,-,N/A,,Clear,0,2013-08-30 05:15:00
12:35 AM,76.6,73.9,91,29.99,3.0,Calm,Calm,-,N/A,,Clear,0,2013-08-30 05:35:00
12:55 AM,76.3,73.6,91,29.99,3.0,East,3.5,-,N/A,,Clear,100,2013-08-30 05:55:00
1:15 AM,76.3,73.6,91,29.99,3.0,SE,4.6,-,N/A,,Clear,130,2013-08-30 06:15:00
1:35 AM,76.3,73.8,92,29.98,3.0,SSE,3.5,-,N/A,,Clear,150,2013-08-30 06:35:00
1:55 AM,76.3,73.8,92,29.98,3.0,SE,3.5,-,N/A,,Clear,140,2013-08-30 06:55:00
2:15 AM,75.7,73.4,92,29.97,2.5,Calm,Calm,-,N/A,,Clear,0,2013-08-30 07:15:00
2:35 AM,76.1,73.6,92,29.97,2.5,Calm,Calm,-,N/A,,Clear,0,2013-08-30 07:35:00
2:55 AM,75.7,73.4,92,29.97,1.8,Calm,Calm,-,N/A,,Mist,0,2013-08-30 07:55:00
3:15 AM,75.9,73.4,92,29.97,1.2,Calm,Calm,-,N/A,,Mist,0,2013-08-30 08:15:00
3:35 AM,75.2,72.9,92,29.97,0.5,Calm,Calm,-,N/A,Fog,Fog,0,2013-08-30 08:35:00
3:55 AM,74.7,72.5,93,29.97,0.2,Calm,Calm,-,N/A,Fog,Fog,0,2013-08-30 08:55:00
4:15 AM,74.8,72.7,93,29.97,0.2,Calm,Calm,-,N/A,Fog,Fog,0,2013-08-30 09:15:00
4:35 AM,74.3,72.3,94,29.96,0.2,South,3.5,-,N/A,Fog,Fog,170,2013-08-30 09:35:00
4:55 AM,74.5,72.5,94,29.96,1.2,Calm,Calm,-,N/A,,Mist,0,2013-08-30 09:55:00
5:15 AM,74.7,72.7,94,29.96,2.0,Calm,Calm,-,N/A,,Clear,0,2013-08-30 10:15:00
5:35 AM,74.7,72.7,94,29.96,2.0,Calm,Calm,-,N/A,,Clear,0,2013-08-30 10:35:00
5:55 AM,74.5,72.5,94,29.96,1.0,Calm,Calm,-,N/A,,Mostly Cloudy,0,2013-08-30 10:55:00
6:15 AM,74.1,72.1,94,29.96,2.0,Calm,Calm,-,N/A,,Mostly Cloudy,0,2013-08-30 11:15:00
6:35 AM,73.8,71.8,93,29.97,3.0,South,3.5,-,N/A,,Scattered Clouds,180,2013-08-30 11:35:00
6:55 AM,74.1,72.1,94,29.97,3.0,Calm,Calm,-,N/A,,Clear,0,2013-08-30 11:55:00
7:15 AM,74.5,72.5,94,29.97,3.0,South,3.5,-,N/A,,Clear,180,2013-08-30 12:15:00
7:35 AM,75.4,73.2,93,29.97,5.0,Calm,Calm,-,N/A,,Clear,0,2013-08-30 12:35:00
7:55 AM,77.0,74.3,91,29.97,7.0,Calm,Calm,-,N/A,,Clear,0,2013-08-30 12:55:00
8:55 AM,83.5,73.0,71,29.96,10.0,SW,4.6,-,N/A,,Clear,230,2013-08-30 13:55:00
9:15 AM,84.9,73.0,67,29.96,10.0,WSW,8.1,-,N/A,,Clear,240,2013-08-30 14:15:00
9:35 AM,85.5,72.9,66,29.96,10.0,SW,6.9,-,N/A,,Clear,230,2013-08-30 14:35:00
9:55 AM,87.3,72.7,62,29.96,10.0,WSW,9.2,-,N/A,,Clear,250,2013-08-30 14:55:00
10:15 AM,88.2,72.9,60,29.95,10.0,WSW,8.1,-,N/A,,Clear,250,2013-08-30 15:15:00
10:35 AM,89.6,72.3,57,29.95,10.0,West,8.1,16.1,N/A,,Clear,260,2013-08-30 15:35:00
10:55 AM,90.5,72.5,55,29.95,10.0,WSW,9.2,-,N/A,,Clear,240,2013-08-30 15:55:00
11:15 AM,91.2,71.6,52,29.94,10.0,West,8.1,-,N/A,,Clear,260,2013-08-30 16:15:00
11:35 AM,91.6,71.4,52,29.94,10.0,WSW,10.4,16.1,N/A,,Clear,240,2013-08-30 16:35:00
11:55 AM,92.5,71.6,50,29.93,10.0,WSW,8.1,-,N/A,,Clear,250,2013-08-30 16:55:00
12:15 PM,93.2,69.6,46,29.93,10.0,WSW,9.2,-,N/A,,Clear,240,2013-08-30 17:15:00
12:35 PM,94.3,69.4,44,29.92,10.0,SW,8.1,-,N/A,,Clear,230,2013-08-30 17:35:00
12:55 PM,95.2,69.1,42,29.92,10.0,SW,11.5,-,N/A,,Clear,220,2013-08-30 17:55:00
1:15 PM,95.0,68.2,41,29.91,10.0,WSW,9.2,-,N/A,,Clear,240,2013-08-30 18:15:00
1:35 PM,96.1,69.4,42,29.91,10.0,SW,8.1,-,N/A,,Clear,220,2013-08-30 18:35:00
1:55 PM,96.1,66.2,37,29.90,10.0,WSW,10.4,16.1,N/A,,Clear,240,2013-08-30 18:55:00
2:15 PM,96.8,65.7,36,29.90,10.0,WSW,9.2,19.6,N/A,,Clear,250,2013-08-30 19:15:00
2:35 PM,97.2,65.3,35,29.89,10.0,WSW,8.1,-,N/A,,Clear,240,2013-08-30 19:35:00
2:55 PM,97.7,66.0,35,29.88,10.0,WSW,9.2,-,N/A,,Clear,240,2013-08-30 19:55:00
3:15 PM,98.1,65.8,35,29.87,10.0,WSW,10.4,-,N/A,,Clear,250,2013-08-30 20:15:00
3:35 PM,97.7,65.8,35,29.87,10.0,SW,9.2,-,N/A,,Clear,230,2013-08-30 20:35:00
3:55 PM,98.1,65.8,35,29.86,10.0,SW,9.2,-,N/A,,Clear,230,2013-08-30 20:55:00
4:15 PM,97.9,65.8,35,29.86,10.0,WSW,6.9,-,N/A,,Clear,250,2013-08-30 21:15:00
4:35 PM,97.7,65.5,35,29.85,10.0,WSW,5.8,-,N/A,,Clear,240,2013-08-30 21:35:00
4:55 PM,97.7,65.5,35,29.85,10.0,WSW,6.9,-,N/A,,Clear,250,2013-08-30 21:55:00
5:15 PM,97.2,65.8,36,29.85,10.0,SW,5.8,-,N/A,,Clear,230,2013-08-30 22:15:00
5:35 PM,96.6,66.7,37,29.84,10.0,SW,5.8,-,N/A,,Clear,230,2013-08-30 22:35:00
5:55 PM,95.4,69.3,42,29.84,10.0,SW,4.6,-,N/A,,Clear,230,2013-08-30 22:55:00
6:15 PM,94.8,70.0,44,29.83,10.0,SW,4.6,-,N/A,,Clear,220,2013-08-30 23:15:00
6:35 PM,93.7,70.7,47,29.83,10.0,SW,3.5,-,N/A,,Clear,220,2013-08-30 23:35:00
6:55 PM,92.3,70.2,48,29.83,10.0,SW,4.6,-,N/A,,Clear,220,2013-08-30 23:55:00
7:15 PM,90.7,70.0,50,29.83,10.0,SW,3.5,-,N/A,,Clear,220,2013-08-31 00:15:00
7:35 PM,89.2,69.8,53,29.84,10.0,SW,3.5,-,N/A,,Clear,220,2013-08-31 00:35:00
7:55 PM,87.8,69.8,55,29.84,10.0,SSW,3.5,-,N/A,,Clear,210,2013-08-31 00:55:00
8:15 PM,87.1,69.8,56,29.84,10.0,SW,4.6,-,N/A,,Clear,220,2013-08-31 01:15:00
8:35 PM,86.9,69.3,56,29.84,10.0,SW,3.5,-,N/A,,Scattered Clouds,220,2013-08-31 01:35:00
8:55 PM,86.9,68.7,55,29.84,10.0,SW,4.6,-,N/A,,Scattered Clouds,220,2013-08-31 01:55:00
9:15 PM,86.2,68.4,55,29.84,10.0,SW,4.6,-,N/A,,Clear,220,2013-08-31 02:15:00
9:35 PM,86.4,68.0,54,29.84,10.0,SW,4.6,-,N/A,,Clear,220,2013-08-31 02:35:00
9:55 PM,86.2,67.8,54,29.84,10.0,SW,5.8,-,N/A,,Clear,230,2013-08-31 02:55:00
10:15 PM,85.3,68.0,56,29.84,10.0,SW,4.6,-,N/A,,Clear,230,2013-08-31 03:15:00
10:35 PM,84.9,68.0,57,29.83,10.0,WSW,4.6,-,N/A,,Clear,240,2013-08-31 03:35:00
10:55 PM,84.7,68.0,57,29.84,10.0,WSW,3.5,-,N/A,,Clear,250,2013-08-31 03:55:00
11:15 PM,83.5,67.8,59,29.84,10.0,Calm,Calm,-,N/A,,Clear,0,2013-08-31 04:15:00
11:35 PM,83.3,68.0,60,29.84,10.0,SW,4.6,-,N/A,,Clear,220,2013-08-31 04:35:00
11:55 PM,81.1,68.4,65,29.84,10.0,SW,4.6,-,N/A,,Clear,230,2013-08-31 04:55:00